Location: Broek
(53.2737°N, 5.9967°E)
Time: 20:44:04
(UTC+00:00)

Meteor 1-24 Rocket - Pass Details

Date: 10 October 2024
Orbit: 788 x 927 km, 81.2° (Epoch: 10 November)

Event Time Altitude Azimuth Distance (km) Brightness Sun altitude
Rises 18:33:05 0° 346° (NNW) 3,421 7.2 -16.1°
Reaches altitude 10° 18:35:32 10° 346° (NNW) 2,461 6.4 -16.5°
Maximum altitude 18:41:06 84° 259° (W) 827 3.6 -17.3°
Drops below altitude 10° 18:46:27 10° 171° (S) 2,370 5.8 -18.1°
Sets 18:48:47 0° 171° (S) 3,285 6.6 -18.4°
